Location: Lynch Observatory
(39.9540°N, 75.1861°W)
Time: 19:12:27
(UTC-04:00)

Hubble Space Telescope - Pass Details

Date: 13 August 2022
Orbit: 532 x 535 km, 28.5° (Epoch: 23 September)

Event Time Altitude Azimuth Distance (km) Brightness Sun altitude
Rises 20:54:02 0° 247° (WSW) 2,666 4.9 -10.3°
Reaches altitude 10° 20:57:29 10° 217° (SW) 1,775 3.5 -10.9°
Maximum altitude 20:59:11 12° 193° (SSW) 1,630 3.1 -11.2°
Drops below altitude 10° 21:00:54 10° 168° (SSE) 1,774 3.0 -11.4°
Enters shadow 21:01:19 - 163° (SSE) 1,848 3.1 -11.5°
